User: anonymous   Login
Location: Unspecified
(0.0000°N, 0.0000°E)
Time: 06:21:21
(UTC+00:00)
Language:

Transit 2A - Orbit

View from above orbital plane
View from above orbital plane
View from above satellite
View from above satellite

Ground track
Ground track

The orbit data is extracted from the following two-line orbital elements,

1    45U 60007A   17345.45948573 -.00000060 +00000-0 +12212-4 0  9996
2    45 066.6950 282.5086 0262936 264.6855 092.4197 14.33581676934145
Epoch (UTC): 11 December 2017 11:01:39
Eccentricity: 0.0262936
inclination: 66.6950°
perigee height: 591 km
apogee height: 968 km
right ascension of ascending node: 282.5086°
argument of perigee: 264.6855°
revolutions per day: 14.33581676
mean anomaly at epoch: 92.4197°
orbit number at epoch: 93414

The dashed part of the orbit path shows where the satellite is in the earth's shadow,  

DLR